Location: *
(49.3500°N, 12.6000°E)
Time: 12:48:40
(UTC+00:00)

STARLINK-68 - Pass Details

Date: 18 October 2019
Orbit: 548 x 551 km, 53.0° (Epoch: 11 November)

Event Time Altitude Azimuth Distance (km) Brightness Sun altitude
Rises 17:29:59 0° 263° (W) 2,714 9.1 -13.1°
Reaches altitude 10° 17:32:15 10° 267° (W) 1,822 7.8 -13.4°
Maximum altitude 17:36:20 58° 347° (NNW) 643 4.0 -14.1°
Enters shadow 17:38:55 21° 61° (ENE) 1,253 4.9 -14.5°
